Regional Weather Roundup
Issued by NWS

Home | Current Version | Previous Version | Text Only | Print | Product List | Glossary On
Versions: 1 2 3 4 5 6 7 8 9 10 11 12 13 14 15 16 17 18 19 20 21 22 23 24 25 26 27 28 29 30 31 32 33 34 35 36 37 38 39 40 41 42 43 44 45 46 47 48 49 50
000
ASUS43 KMKX 291400
RWRWI

WISCONSIN REGIONAL WEATHER ROUNDUP
NATIONAL WEATHER SERVICE MILWAUKEE/SULLIVAN WI
900 AM CDT TUE JUL 29 2014

NOTE: "FAIR" INDICATES FEW OR NO CLOUDS BELOW 12,000 FEET WITH NO
SIGNIFICANT WEATHER AND/OR OBSTRUCTIONS TO VISIBILITY.

WIZ001-002-006>008-014>016-023>028-291500-
NORTHWEST WISCONSIN

CITY           SKY/WX    TMP DP  RH WIND       PRES   REMARKS
SUPERIOR ARPT  MOSUNNY   62  57  85 SW6       30.08R
ASHLAND        PTSUNNY   62  57  83 S3        30.07S
HAYWARD        PTSUNNY   60  56  86 CALM      30.10S
SIREN          SUNNY     62  57  83 NW8       30.11S
RICE LAKE      NOT AVBL
LADYSMITH      SUNNY     62  56  82 W6        30.10F
EAU CLAIRE     NOT AVBL
MENOMONIE      SUNNY     65  57  75 W7        30.11S
NEW RICHMOND   SUNNY     64  59  84 NW5       30.13S
OSCEOLA        SUNNY     63  60  91 NW5       30.16R
$$

WIZ003>005-009-010-017-018-291500-
NORTH CENTRAL WISCONSIN

CITY           SKY/WX    TMP DP  RH WIND       PRES   REMARKS
WOODRUFF       PTSUNNY   59  56  88 NW7       30.07R
RHINELANDER    CLOUDY    59  55  87 VRB7      30.07S
EAGLE RIVER    MOSUNNY   60  55  82 N9        30.06R
LAND O LAKES   CLOUDY    62  56  81 NW6       30.06S
PHILLIPS       CLOUDY    57  55  91 NW3       30.08S
TOMAHAWK       PTSUNNY   56  55  96 NW5       30.07S
MEDFORD        MOSUNNY   60  56  87 W3        30.08S
MERRILL        CLOUDY    59  55  87 NW3       30.07S
$$

WIZ029-030-035-036-043>047-291500-
CENTRAL WISCONSIN

CITY           SKY/WX    TMP DP  RH WIND       PRES   REMARKS
WAUSAU         CLOUDY    60  54  80 NW8       30.05S
MOSINEE        NOT AVBL
MARSHFIELD     MOSUNNY   66  55  67 NW12      30.08R
STEVENS POINT  CLOUDY    61  55  79 NW5       30.07S
WAUPACA        PTSUNNY   66  55  68 NW6       30.05R
WAUTOMA        NOT AVBL
WISC RAPIDS    MOSUNNY   64  56  75 NW6       30.09R
CAMP DOUGLAS   NOT AVBL
$$

WIZ011>013-019>022-031-037>040-048>050-291500-
NORTHEAST WISCONSIN

CITY           SKY/WX    TMP DP  RH WIND       PRES   REMARKS
ANTIGO         PTSUNNY   60  56  85 NW12      30.06S
STURGEON BAY   PTSUNNY   63  54  72 NW7       30.02S
GREEN BAY      SUNNY     66  56  70 VRB6      30.03R
MANITOWOC      NOT AVBL
APPLETON       NOT AVBL
CLINTONVILLE   PTSUNNY   63  52  67 NW7       30.04S
OSHKOSH        MOSUNNY   66  55  67 VRB7      30.04S
$$

WIZ032>034-041-042-053>061-291500-
SOUTHWEST WISCONSIN

CITY           SKY/WX    TMP DP  RH WIND       PRES   REMARKS
LA CROSSE      SUNNY     67  58  72 NW7       30.10S
SPARTA         SUNNY     62  54  75 CALM      30.11R
VIROQUA        FAIR      62  60  90 NW6       30.11R
BOSCOBEL       SUNNY     66  57  72 CALM      30.10S
PRAIRIE DU CHI SUNNY     64  54  70 NW6       30.11S
PLATTEVILLE    FAIR      62  57  83 W5        30.11S
$$

WIZ056-057-062-063-064-067-068-291500-
SOUTH CENTRAL WISCONSIN

CITY           SKY/WX    TMP DP  RH WIND       PRES   REMARKS
BARABOO/DELLS  MOSUNNY   63  53  70 CALM      30.08R
LONE ROCK      NOT AVBL
WATERTOWN      SUNNY     64  55  75 NW9       30.06R
MADISON        MOSUNNY   68  55  63 NW6       30.07S
MIDDLETON      FAIR      66  55  68 W6        30.08S
MONROE         SUNNY     63  54  72 NW8       30.09R
JANESVILLE     SUNNY     66  54  63 NW10      30.07S
$$

WIZ051-052-058>065-066-070>072-291500-
SOUTHEAST WISCONSIN

CITY           SKY/WX    TMP DP  RH WIND       PRES   REMARKS
MILWAUKEE      MOSUNNY   67  54  63 W9        30.03S
WAUKESHA       MOSUNNY   63  54  72 W7        30.06R
MILWAUKEE/TIMM SUNNY     64  54  68 NW7       30.04S
RACINE         SUNNY     66  56  70 NW10      30.05R
BURLINGTON     SUNNY     63  55  75 NW8       30.05S
KENOSHA        SUNNY     66  56  70 NW12      30.04S
FOND DU LAC    MOSUNNY   66  55  67 N5        30.05S
SHEBOYGAN      MOSUNNY   64  56  75 NW7       30.03R
WEST BEND      MOSUNNY   61  54  77 NW7       30.04S
JUNEAU         MOSUNNY   63  53  70 NW7       30.06S
$$

LSZ147-162-291500-
LAKE SUPERIOR

STATION/POSITION TIME  TEMP    WIND        PRES    WAVE
                       AIR SEA DIR/SP/G            HT/PER
                 (UTC) (F)     (DEG/KT/KT) (MB)    (FT/S)
W MID LAKE BUOY  1250   48 44  220/  8/  8 1017.0R   1
PORT WING        1300   61     210/  4/  6 1017.9
SAXON HARBOR     1300          190/  5/  7 1017.9S
$$

LMZ867-665-643>646-291500-
LAKE MICHIGAN

STATION/POSITION TIME  TEMP    WIND        PRES    WAVE
                       AIR SEA DIR/SP/G            HT/PER
                 (UTC) (F)     (DEG/KT/KT) (MB)    (FT/S)
N MID LAKE BUOY  1250   56 51  300/  8/  8 1014.6R   0
NORTHPORT PIER   1300   61     310/ 10/ 13 1015.6R
SISTER BAY       1210   61     340/ 13/ 16   N/A
KEWAUNEE LAKESHO 1300   61     300/  7/ 11 1016.8R
SHEBOYGAN LAKESH 1300   63     290/  8/  9 1016.7R
PORT WASHINGTON  1340   66     300/  7/ 12 1017.3R
ATWATER BUOY     1300   63     290/ 10     1017.6R
MILWAUKEE LAKESH 1300   63     300/ 10/ 14   N/A
S MID LAKE BUOY  1250   61 60  280/ 10/ 12 1016.4R   1/ 5
KENOSHA   LAKESH 1300   64     290/  8/ 14 1016.9R
$$

TC  - TEMPERATURE IN CELSIUS
VSB - VISIBILITY IN STATUTE MILES
WCI - WIND CHILL INDEX
HX  - HEAT INDEX




USA.gov is the U.S. government's official web portal to all federal, state and local government web resources and services.